This is the latest recevied weather packets stored in our database for station/object DB0LS-15. If no packets are shown the sender has not sent any weather packets the latest 10 day(s).
| Time | Temp. | Humidity | Pressure | Rain* | Wind** | Luminosity | Snow |
|---|---|---|---|---|---|---|---|
| 1777818367 | 27.78° C | 28% | 993.3 hPa | 0 mm | - | - | - |
| 1777817763 | 27.78° C | 29% | 993.3 hPa | 0 mm | - | - | - |
| 1777817160 | 27.78° C | 30% | 993.4 hPa | 0 mm | - | - | - |
| 1777816556 | 27.78° C | 30% | 993.6 hPa | 0 mm | - | - | - |
| 1777815952 | 27.78° C | 31% | 993.8 hPa | 0 mm | - | - | - |
| 1777815348 | 27.78° C | 30% | 993.7 hPa | 0 mm | - | - | - |
| 1777814744 | 27.22° C | 32% | 993.9 hPa | 0 mm | - | - | - |
| 1777814141 | 27.22° C | 30% | 994.1 hPa | 0 mm | - | - | - |
| 1777813537 | 27.22° C | 31% | 994.2 hPa | 0 mm | - | - | - |
| 1777812933 | 27.22° C | 32% | 994.3 hPa | 0 mm | - | - | - |
| 1777812329 | 26.67° C | 31% | 994.5 hPa | 0 mm | - | - | - |
| 1777811725 | 27.22° C | 31% | 994.5 hPa | 0 mm | - | - | - |
| 1777811121 | 27.22° C | 32% | 994.6 hPa | 0 mm | - | - | - |
| 1777810517 | 26.67° C | 32% | 994.7 hPa | 0 mm | - | - | - |
| 1777809974 | 27.22° C | 30% | 994.9 hPa | 0 mm | - | - | - |
| 1777809370 | 26.67° C | 31% | 994.8 hPa | 0 mm | - | - | - |
| 1777808766 | 26.67° C | 31% | 995 hPa | 0 mm | - | - | - |
| 1777808163 | 26.67° C | 31% | 995.1 hPa | 0 mm | - | - | - |
| 1777807559 | 26.67° C | 31% | 995.2 hPa | 0 mm | - | - | - |
| 1777806955 | 26.11° C | 31% | 995.2 hPa | 0 mm | - | - | - |
| 1777806351 | 26.11° C | 33% | 995.3 hPa | 0 mm | - | - | - |
| 1777805748 | 25.56° C | 33% | 995.5 hPa | 0 mm | - | - | - |
| 1777805144 | 25.56° C | 33% | 995.5 hPa | 0 mm | - | - | - |
| 1777804540 | 26.11° C | 33% | 995.7 hPa | 0 mm | - | - | - |
| 1777803937 | 26.11° C | 32% | 995.8 hPa | 0 mm | - | - | - |
* Rain latest hour (hover to see other rain measurements)
** Current wind speed in m/s (hover to see current wind gust speed)